User: anonymous
Location: The C. Gantt Observatory
(33.6981°N, 81.6836°W)
Time: 03:24:55
(UTC-04:00)
Language:

Iridium 30 - Orbit

View from above orbital plane
View from above orbital plane
View from above satellite
View from above satellite

Ground track
Ground track

The orbit data is extracted from the following two-line orbital elements,

1 24949U 97051F   14258.29168629  .00000441  00000-0  15056-3 0   308
2 24949 086.4010 347.6564 0002416 110.1244 250.0212 14.34218565890222
Epoch (UTC): 15 September 2014 07:00:01
Eccentricity: 0.0002416
inclination: 86.4010°
perigee height: 776 km
apogee height: 779 km
right ascension of ascending node: 347.6564°
argument of perigee: 110.1244°
revolutions per day: 14.34218565
mean anomaly at epoch: 250.0212°
orbit number at epoch: 89022

The dashed part of the orbit path shows where the satellite is in the earth's shadow,  

DLR